DW8090 Weather Reports


Display with metric or nautical units.
time (UTC)temp
F
wind
direction
speed
MPH
gust
MPH
rain 1hr
in
rain 24hr
in
rain mn
in
humidity
%
barometer
mb
20240622004007 62 77 0.0 1.0 0.11 0.43 0.11 92 1012.3
20240621234006 65 148 0.0 2.0 0.00 0.32 0.00 87 1012.5
20240621233006 65 354 0.0 3.0 0.00 0.32 0.00 85 1012.4
20240621224007 65 47 1.0 3.0 0.01 0.32 0.00 83 1012.3
20240621220006 66 2 1.0 6.0 0.01 0.32 0.00 82 1012.1
20240621213007 65 199 1.0 5.0 0.00 0.31 0.31 82 1012.2
20240621211007 65 258 1.0 5.0 0.00 0.31 0.31 81 1011.9
20240621203009 67 266 1.0 3.0 0.00 0.31 0.31 70 1011.8
20240621200006 65 135 0.0 1.0 0.00 0.31 0.31 78 1011.6
20240621191007 69 306 1.0 7.0 0.00 0.31 0.31 60 1011.1
20240621190008 70 180 2.0 6.0 0.00 0.31 0.31 68 1011.1
20240621180009 73 14 1.0 3.0 0.00 0.31 0.31 69 1010.6
20240621174004 74 95 1.0 6.0 0.00 0.31 0.31 66 1010.7
20240621173009 74 328 2.0 6.0 0.00 0.31 0.31 65 1010.7
20240621160008 77 45 0.0 3.0 0.00 0.31 0.31 63 1011.1
20240621153005 78 23 0.0 3.0 0.00 0.31 0.31 66 1011.7
20240621151004 78 0 0.0 2.0 0.00 0.31 0.31 64 1011.8
20240621144003 78 223 1.0 3.0 0.00 0.31 0.31 62 1012.0
20240621124003 71 45 1.0 3.0 0.00 0.31 0.31 90 1012.9
20240621120003 71 0 1.0 3.0 0.00 0.31 0.31 92 1013.7
20240621104004 69 0 0.0 1.0 0.13 0.31 0.31 94 1014.4
20240621103008 69 135 0.0 1.0 0.17 0.31 0.31 94 1014.9
20240621101003 68 33 0.0 0.0 0.24 0.31 0.31 94 1014.6
20240621100003 67 0 0.0 1.0 0.19 0.26 0.26 95 1015.0
20240621090009 69 346 0.0 1.0 0.07 0.07 0.07 92 1015.2
20240621081005 70 180 0.0 1.0 0.02 0.02 0.02 82 1015.2
20240621080004 72 45 0.0 3.0 0.00 0.00 0.00 78 1015.0
20240621061004 70 0 0.0 1.0 0.00 0.00 0.00 82 1015.0
20240621060003 69 112 0.0 1.0 0.00 0.00 0.00 85 1014.9
20240621054004 68 0 0.0 0.0 0.00 0.00 0.00 86 1014.9
20240621053004 68 0 0.0 1.0 0.00 0.00 0.00 88 1015.0
20240621051004 67 135 0.0 0.0 0.00 0.00 0.00 91 1014.5
20240621050007 66 0 0.0 1.0 0.00 0.00 0.00 91 1014.6
20240621041005 65 141 1.0 3.0 0.00 0.00 0.00 96 1014.8
20240621034004 62 332 0.0 1.0 0.00 0.00 0.00 95 1015.0
20240621030008 62 45 0.0 0.0 0.00 0.00 0.00 94 1015.2
20240621023005 62 270 0.0 1.0 0.00 0.00 0.00 94 1015.6
20240621020003 63 0 0.0 1.0 0.00 0.00 0.00 93 1015.6
20240621011004 64 0 0.0 0.0 0.00 0.01 0.00 92 1016.7
20240621010004 64 0 0.0 0.0 0.00 0.01 0.00 92 1016.7